Theta_e
347 347 346 349 364 364 367 364 360 362 360 351 348 350 353 354 355 360 345 346 346 347 350 349 350 350 351 349 348 350 351 350 350 350 351 350 348 347 351 351 350 350 350 349 348 348 347 348 349
347 347 348 355 365 369 366 360 362 357 355 349 352 352 354 357 348 346 346 346 345 347 350 348 349 348 350 350 349 351 351 347 350 351 350 351 347 348 351 351 351 350 351 351 349 349 348 348 349
348 347 357 362 364 370 368 361 360 354 351 350 356 351 353 354 346 345 346 346 345 348 350 348 349 346 348 351 351 350 351 351 351 350 350 350 351 347 352 350 345 345 348 349 349 348 348 346 346
349 350 354 362 362 362 363 359 357 356 353 352 352 355 348 347 344 345 347 346 345 348 349 348 351 346 352 351 347 351 350 351 351 347 347 349 350 352 348 345 346 347 349 349 349 349 348 348 347
350 355 360 363 361 359 358 357 357 358 357 354 351 353 351 345 345 347 348 346 346 346 349 348 351 346 351 352 346 351 351 351 350 349 349 349 349 350 350 349 349 347 349 349 350 347 347 345 344
358 353 361 363 360 357 356 356 358 358 355 352 352 351 351 346 347 348 348 346 346 348 347 348 352 346 351 352 346 351 351 350 351 350 348 349 348 350 350 351 351 350 350 348 347 342 342 343 343
355 358 359 357 360 360 359 355 358 357 356 353 348 353 350 347 347 348 348 348 347 347 347 348 353 350 351 351 350 351 351 350 350 351 347 347 347 348 349 351 350 348 348 347 345 342 341 342 342
355 351 356 358 361 361 356 354 356 355 356 348 347 354 353 347 347 348 349 349 346 346 347 348 351 348 348 349 351 351 351 351 351 350 348 349 350 352 343 345 344 347 348 347 346 340 341 343 341
343 357 361 356 357 359 354 357 355 350 351 349 348 348 346 346 348 347 350 349 346 346 347 347 350 349 350 350 349 351 351 350 351 350 348 349 351 349 347 343 343 341 343 347 343 340 342 343 341
355 361 358 349 353 357 357 358 356 355 353 352 350 346 345 346 347 347 348 347 345 348 347 347 348 348 349 348 350 351 351 350 350 351 346 348 347 348 348 346 343 342 341 343 342 341 341 345 347
355 363 355 352 351 356 358 358 355 357 358 353 352 349 346 346 346 345 345 344 344 347 346 347 348 349 349 349 351 350 351 350 349 344 342 344 346 350 348 347 345 344 343 346 344 345 346 346 346
360 357 357 354 351 351 354 353 358 356 355 351 349 347 346 347 346 344 344 344 345 347 347 347 348 348 350 350 349 350 350 350 350 347 347 346 349 345 345 347 340 341 345 346 346 349 346 348 347
356 355 353 353 352 351 350 354 358 357 353 349 348 346 346 346 344 342 344 345 345 346 349 347 349 348 349 350 350 350 350 349 349 344 340 346 348 348 344 343 343 345 345 345 343 344 343 341 344
346 350 352 350 350 349 352 350 356 355 350 349 348 347 346 345 343 342 344 345 346 347 348 348 349 348 348 348 347 348 349 348 347 345 343 346 347 345 345 343 346 347 345 343 344 343 344 342 344
337 344 340 344 346 351 347 352 355 352 350 351 349 347 345 345 343 343 343 345 347 348 348 348 348 347 345 343 341 344 346 347 348 348 342 339 344 345 345 346 348 349 346 344 342 345 343 341 343
327 334 349 346 344 344 348 356 355 351 351 351 350 348 346 344 344 344 344 345 346 347 348 348 346 345 345 344 337 342 343 346 348 347 345 343 345 347 346 347 349 347 346 344 342 344 346 343 343
329 327 338 347 342 349 350 355 357 351 352 351 350 349 347 345 344 346 346 346 346 346 348 348 347 345 344 338 339 336 338 343 347 346 346 346 346 345 348 348 349 346 349 348 347 347 344 344 342
326 328 337 347 347 345 351 353 358 351 352 352 350 349 348 346 344 345 347 347 348 347 347 347 346 346 341 343 338 342 341 343 345 346 346 346 347 347 347 348 347 347 346 345 346 346 347 345 341
327 330 330 342 344 347 349 349 360 355 352 352 350 349 349 347 343 344 346 347 348 349 348 347 347 344 343 344 344 345 345 346 347 345 346 346 347 347 348 348 347 347 345 343 345 346 345 346 339
323 328 333 333 337 346 348 349 354 358 355 352 351 349 349 346 344 345 346 347 348 348 348 348 347 345 341 344 345 347 348 348 350 347 345 347 347 348 349 347 348 347 347 345 346 342 342 343 341
321 324 328 333 335 337 346 348 351 358 356 354 349 347 346 345 345 346 347 347 347 348 349 348 348 347 341 344 346 345 346 346 348 349 348 347 348 348 349 348 348 345 346 346 348 342 341 343 344
319 320 324 327 329 342 342 353 350 354 361 357 355 351 347 345 343 343 346 347 347 348 348 348 348 347 346 341 346 346 347 348 348 350 349 347 347 348 349 349 347 348 349 347 349 346 344 340 343
318 318 318 323 329 330 334 347 347 350 362 360 357 354 352 349 346 345 344 345 346 347 347 347 347 347 346 345 345 347 347 348 349 348 347 347 347 348 349 349 349 349 348 347 348 347 346 344 343
318 321 320 319 322 332 335 337 343 347 355 358 357 355 354 352 351 349 346 345 345 346 347 346 346 346 346 345 344 345 347 348 348 348 348 349 350 349 348 349 349 350 351 348 349 348 348 346 344
320 320 324 325 322 329 333 336 337 339 344 350 355 356 354 353 351 351 350 348 347 347 347 347 346 346 346 346 346 344 345 345 346 348 347 347 348 350 349 347 349 351 350 350 349 349 350 349 346
322 323 323 327 323 320 328 335 336 334 334 341 347 351 353 354 352 351 350 349 349 348 348 347 346 347 346 345 346 345 344 347 346 347 346 347 346 347 349 345 346 348 349 350 351 353 353 352 350
324 325 323 323 327 326 322 329 332 334 336 336 338 349 353 354 353 352 351 349 349 348 349 348 348 347 346 346 346 347 346 346 347 346 345 347 345 346 346 341 343 345 347 349 351 354 353 351 351
324 324 326 325 325 327 325 327 330 336 336 337 337 345 350 352 353 352 351 350 348 348 348 348 348 348 347 346 346 347 347 346 346 346 345 345 346 343 344 340 344 346 346 348 351 354 355 355 353
324 325 326 327 326 326 326 327 330 332 338 338 338 340 344 349 352 352 352 350 349 348 348 348 348 348 348 347 347 347 348 348 348 348 347 345 343 344 342 340 342 346 348 349 351 351 355 357 356
320 324 325 329 331 330 329 326 329 333 335 336 337 340 341 345 350 351 351 350 350 350 349 348 348 348 348 348 347 347 348 348 348 348 348 347 344 344 344 343 343 346 348 349 352 352 352 355 356
Wind_Speed
13 12 10 3 2 3 0 1 1 6 5 4 12 4 5 5 2 3 18 17 25 23 20 20 21 19 19 19 19 17 17 15 15 15 13 12 13 12 11 10 11 11 10 10 11 11 10 11 11
14 12 3 2 1 2 3 4 7 8 3 15 9 9 4 4 4 11 16 24 27 23 21 20 20 20 18 19 18 17 16 16 15 14 13 12 11 11 11 11 10 10 10 10 11 11 11 11 11
15 7 2 1 1 1 1 3 5 12 11 13 5 6 3 4 7 25 20 30 26 22 21 20 21 19 18 17 16 17 16 14 15 14 13 13 12 12 12 10 10 9 9 10 10 10 11 12 11
9 3 2 2 4 2 2 4 9 15 11 6 9 7 4 3 20 13 29 28 26 22 20 21 20 19 17 16 16 16 15 15 14 14 14 13 13 11 12 11 10 10 10 9 10 10 10 10 10
4 2 2 2 2 2 4 2 4 11 8 8 3 5 5 7 9 28 30 28 26 22 20 20 20 19 17 15 16 16 14 14 14 15 16 14 13 13 12 12 11 11 10 9 10 10 10 9 10
3 2 2 2 3 1 2 3 7 12 9 10 7 9 4 13 23 28 28 27 25 23 21 19 18 18 16 15 16 15 15 15 14 14 15 15 13 13 11 11 12 11 9 9 10 11 11 10 10
1 2 1 3 2 3 3 4 11 11 12 7 15 7 5 16 26 27 27 25 24 21 20 19 17 16 15 14 14 14 14 14 14 14 14 14 13 13 11 10 11 12 11 10 10 11 10 10 11
2 2 2 4 3 3 5 5 9 8 5 14 12 7 8 21 29 28 26 24 23 20 19 19 16 16 14 13 13 13 13 13 12 13 13 12 11 11 11 10 10 12 10 10 10 11 9 10 11
2 2 4 3 3 1 8 6 6 10 14 5 8 9 20 31 29 29 27 25 23 20 19 18 17 16 14 13 12 12 12 12 12 11 12 11 9 10 9 9 10 11 10 10 10 9 9 10 12
4 3 3 2 1 3 10 8 10 7 13 5 7 13 32 34 31 31 28 27 25 22 21 19 17 16 14 13 13 12 12 11 10 10 10 9 9 9 8 8 8 10 9 9 10 8 8 9 8
6 4 2 2 1 8 8 8 5 13 9 10 19 23 29 33 30 30 28 28 27 24 21 19 18 17 15 13 13 12 11 10 10 11 11 9 8 7 7 6 5 6 6 6 6 5 4 4 6
6 9 10 4 4 6 4 7 6 11 2 13 22 28 29 27 28 30 28 27 26 24 22 20 18 17 15 13 13 12 11 10 9 10 9 8 6 7 7 5 5 7 6 5 6 4 2 2 3
15 6 5 9 5 4 4 5 4 9 5 16 21 27 26 24 29 28 27 25 24 24 22 22 20 18 16 14 12 12 11 10 7 8 7 8 6 6 7 6 7 7 7 6 5 4 4 2 3
5 16 11 4 5 5 6 2 6 4 13 19 24 27 26 25 30 29 28 27 25 23 23 23 21 18 17 15 15 13 11 9 8 7 6 6 7 8 6 5 6 6 7 6 4 4 4 5 4
10 4 6 10 7 5 6 7 10 13 16 21 23 24 25 24 30 30 29 28 27 25 23 24 22 20 20 18 16 14 11 9 7 7 7 6 7 6 5 5 5 5 5 6 5 2 4 5 6
6 9 5 3 12 6 8 3 7 16 19 21 23 23 23 24 30 28 27 27 26 24 25 24 22 21 20 18 18 14 12 10 8 7 6 5 5 5 5 5 5 5 7 6 5 3 4 5 6
5 10 15 5 8 7 13 2 10 15 17 20 21 23 23 22 26 28 28 27 27 26 25 24 23 21 21 20 17 16 14 12 10 9 8 8 6 5 4 5 5 6 6 5 4 4 4 5 5
11 14 10 15 10 12 11 8 11 15 16 18 19 21 22 23 25 29 29 27 25 25 24 24 24 22 22 17 18 14 13 13 12 12 11 12 9 6 6 5 6 6 6 5 4 3 4 5 6
9 7 16 11 9 10 14 11 12 15 15 16 19 21 22 24 28 28 27 28 27 25 25 25 25 25 22 19 18 15 14 12 10 11 10 11 11 9 8 6 7 8 6 6 7 6 7 7 9
17 6 12 14 3 10 8 15 13 18 20 22 24 23 24 23 23 28 30 29 30 29 28 26 26 27 27 21 19 13 14 10 8 9 12 11 12 11 10 8 7 10 7 6 6 6 7 4 7
18 19 8 7 6 10 7 15 13 15 14 15 17 19 20 23 26 25 31 33 31 32 30 29 29 28 30 24 19 17 14 12 11 8 10 13 14 13 11 9 7 8 6 6 7 6 6 5 5
19 17 17 10 5 12 13 12 13 15 19 20 20 21 22 24 25 24 30 34 35 34 31 30 30 31 29 31 23 22 20 18 17 13 12 12 15 15 13 12 10 9 7 7 6 5 4 5 6
14 11 16 19 13 10 11 9 17 11 17 21 23 23 24 25 26 27 31 37 37 33 32 31 31 34 31 31 29 27 22 19 15 15 15 15 15 16 16 14 13 10 8 8 7 6 6 6 6
10 4 12 15 14 16 20 13 15 13 19 20 21 23 24 24 25 25 33 34 34 34 32 32 33 35 37 34 34 32 26 22 18 17 18 17 15 15 16 16 15 12 9 8 8 8 8 7 6
20 14 7 8 11 19 18 16 17 14 15 17 21 24 25 25 25 24 25 31 34 36 35 33 33 35 36 35 35 36 34 31 29 24 21 20 18 16 17 18 17 15 13 10 9 10 10 9 10
20 20 8 13 13 16 17 13 14 26 19 11 16 20 19 22 22 24 25 31 34 37 36 36 35 35 36 37 37 38 38 30 29 27 24 23 21 21 19 20 19 18 16 14 12 10 10 11 10
15 22 21 9 4 10 14 21 13 14 20 22 18 14 18 22 23 26 26 34 34 36 39 37 36 36 37 37 36 35 36 34 28 30 30 24 24 19 22 25 22 20 19 17 15 13 12 12 12
16 16 17 13 17 12 8 21 15 21 16 17 19 18 17 19 22 22 23 33 36 37 38 37 38 38 37 37 38 36 36 36 36 31 32 29 25 23 19 24 22 20 19 19 19 15 14 14 12
13 12 14 16 16 14 12 10 16 19 20 17 18 21 19 19 22 23 24 34 38 37 37 39 38 36 36 36 36 36 34 32 31 30 31 33 31 26 24 24 24 22 21 20 19 20 16 15 15
6 10 23 12 20 19 13 14 4 16 20 22 21 17 20 20 21 23 23 29 33 36 38 40 39 39 38 38 37 36 34 33 31 33 31 32 35 31 28 27 26 24 21 20 19 20 18 18 19
Wind_Direction
151 154 164 180 221 234 337 226 109 152 164 153 148 150 144 40 48 82 146 141 143 141 140 138 134 131 125 128 122 124 125 124 126 131 133 136 138 140 134 127 124 121 109 99 95 96 97 102 108
153 149 167 252 274 182 95 126 248 158 117 136 95 113 88 94 91 127 138 149 146 142 142 141 136 131 128 128 129 127 125 126 125 123 127 129 126 133 130 130 126 130 114 101 98 99 102 102 96
156 164 257 261 263 181 109 42 117 138 142 156 109 62 67 96 121 144 146 148 147 144 144 144 137 136 130 128 129 126 122 122 122 123 119 123 127 131 122 123 110 107 105 107 108 102 104 102 103
157 197 242 216 216 159 217 58 114 126 128 131 119 75 94 265 147 153 147 148 148 145 144 145 138 136 132 127 127 127 119 125 120 119 116 112 112 113 110 106 113 108 105 112 113 110 106 105 101
183 205 215 232 232 223 217 198 192 158 124 130 110 111 96 106 134 144 147 151 150 148 147 147 140 140 137 131 129 127 118 119 117 116 111 111 108 108 106 102 102 104 109 110 113 116 109 106 107
169 243 212 206 229 223 217 139 193 155 137 137 109 122 110 133 144 150 150 154 152 148 150 148 146 142 143 132 136 131 125 122 121 119 119 120 118 110 104 102 101 102 108 112 117 116 105 100 103
193 190 252 271 206 191 163 151 158 147 150 151 142 115 116 149 153 151 151 155 154 153 151 151 146 145 145 135 137 136 127 122 121 118 120 119 113 107 105 107 102 100 105 115 120 117 106 98 102
204 237 242 227 217 206 150 161 137 141 123 132 148 156 164 163 157 153 152 154 156 158 158 155 153 152 149 144 144 141 135 130 125 121 122 118 110 106 104 96 97 96 100 110 124 121 105 93 90
149 235 238 254 203 147 149 152 144 111 138 143 177 157 151 158 156 155 154 155 158 163 164 161 159 157 154 151 151 141 136 136 133 131 135 131 122 114 107 101 101 102 100 106 114 117 114 99 92
209 246 233 259 145 197 167 172 138 130 144 118 119 121 145 158 160 161 163 162 166 167 170 168 167 164 159 157 155 148 145 149 146 142 143 140 134 125 117 119 114 112 115 119 119 122 117 102 97
196 241 234 304 183 145 136 141 134 145 186 182 161 151 155 162 164 167 168 169 170 169 172 175 173 171 167 165 158 155 156 157 153 152 149 148 145 140 133 133 119 110 130 109 113 120 114 113 97
234 244 256 320 160 173 178 158 170 183 118 171 165 158 160 167 168 170 172 172 172 173 178 179 179 177 175 167 164 166 164 163 162 166 164 159 151 145 141 124 108 117 120 114 106 103 126 145 144
226 262 261 243 253 288 176 202 160 204 130 145 155 159 166 169 168 173 174 174 176 180 182 185 183 184 181 175 172 173 172 172 179 187 188 176 170 158 147 134 114 111 107 110 85 86 89 73 165
221 240 263 286 245 284 264 252 189 124 140 145 158 165 169 174 173 174 179 178 180 184 186 187 189 188 187 184 182 182 182 181 182 188 171 176 182 167 160 149 134 120 113 123 105 101 83 77 83
234 320 281 247 236 242 233 222 215 146 153 154 167 170 170 178 180 185 184 183 181 186 186 189 191 192 193 192 190 190 189 187 189 194 198 191 180 164 158 156 146 144 134 134 151 153 104 81 83
211 218 252 180 196 223 191 237 151 157 159 165 171 174 173 180 188 189 190 190 189 186 190 189 191 196 196 197 195 194 195 192 190 195 198 195 185 171 180 168 169 162 138 128 130 162 129 95 104
193 216 217 249 192 192 201 261 151 166 169 169 176 178 178 183 192 195 196 195 193 192 190 191 192 198 198 201 200 199 201 204 209 216 224 224 209 204 195 197 175 164 153 153 138 109 132 115 109
208 215 219 211 190 197 202 227 157 175 179 179 180 182 185 188 194 194 198 198 197 198 196 196 195 200 201 199 201 203 206 214 223 232 240 230 223 220 210 205 186 186 174 142 158 154 147 134 128
259 234 233 205 204 212 224 232 192 182 189 184 188 190 191 195 193 197 199 201 201 201 199 200 198 202 199 200 195 199 206 216 230 233 218 214 217 216 219 212 199 194 174 157 195 160 154 141 138
244 277 235 251 218 218 215 233 203 189 199 192 190 194 196 192 193 199 201 201 204 204 203 200 203 203 203 199 198 195 195 211 211 219 212 208 209 213 218 215 208 210 198 193 174 166 148 136 168
231 236 233 255 258 242 230 245 214 208 211 201 204 208 204 201 195 197 201 202 202 205 205 203 204 206 206 201 198 204 203 214 212 208 204 211 207 213 218 219 222 210 185 197 199 179 158 146 173
228 227 237 261 293 232 211 243 206 209 204 207 204 205 207 204 206 202 200 204 204 205 204 205 207 209 209 208 201 201 202 202 207 205 205 204 206 214 219 222 225 224 218 224 193 178 184 165 163
232 231 232 242 255 279 229 241 233 202 209 213 211 209 209 206 205 204 205 205 206 203 203 204 206 211 209 207 205 205 210 214 209 210 215 212 211 214 219 223 226 230 229 210 213 213 213 198 190
222 221 227 234 236 246 235 233 231 205 211 217 212 214 211 208 207 208 209 205 204 204 203 202 203 211 214 211 212 211 208 210 212 211 215 215 214 215 217 219 224 227 233 230 226 218 228 230 226
208 195 198 212 212 235 228 232 233 213 213 212 202 211 213 207 205 203 201 201 200 199 200 198 199 206 211 212 212 216 216 218 220 216 218 218 217 215 218 219 221 226 233 236 236 230 230 237 229
202 205 200 207 217 230 217 234 221 228 240 230 228 215 209 206 208 206 203 201 198 196 195 195 198 202 206 211 214 217 221 220 224 226 223 227 230 227 221 224 227 230 234 238 240 234 235 242 239
191 211 215 265 248 251 217 236 266 230 238 234 233 219 205 204 205 205 203 202 200 200 196 196 197 202 205 209 211 215 219 219 220 222 229 233 235 232 230 233 230 230 232 236 238 236 239 243 241
230 204 205 220 236 234 207 218 229 205 222 224 226 216 211 206 207 207 204 200 202 200 200 197 199 200 204 207 210 214 217 222 223 223 226 226 231 235 226 225 225 228 234 236 238 239 243 240 236
201 206 212 214 227 234 245 226 225 223 209 217 222 221 218 208 207 206 207 203 200 196 198 199 199 201 203 206 209 211 215 217 219 221 225 229 233 233 229 227 228 231 235 237 236 241 238 240 240
328 253 212 220 217 230 258 243 225 215 211 216 220 219 220 213 207 206 205 202 201 199 196 199 201 201 204 205 205 208 211 213 216 218 223 226 230 231 231 229 228 230 232 234 235 240 238 238 242